Погода Kemi I

Погода Kemi I : погода сейчас, прогноз погоды и архив. Всё, что Вы хотите узнать о погоде Kemi I!

Поиск расширенной информации на нашем сайте:

Другие новости

Новости СМИ2

Главная страница сайта

Новости сайта

03.07.2017

Напоминаем, что на нашем специализированном сайте Метеоцентр.Азия вы можете получить высокодетализированные автоматические прогнозы погоды по пунктам России, СНГ и мира в авиационном формате (включающие направление и скорость ветра, видимость, явления погоды, количество и форму облачности, нижнюю и верхнюю границу облачности).


Погода Kemi I - сегодня

Время (UTC), дата Ветер
(°,м/с) 
Видим.   Явления Облачность Т
(°С)
Тd
(°С)
f(%) Тe
(°С)
Pmin
(гПа)
dP
(гПа)
Po
(мм)
O2
(г/м3)
Тmin Tmax R s Состояние
почвы
18 15.09.18 240 (ЮЗ) 11  н/о    н/о 
+12.9 +5.6 61 +11  1000.3  1.4  749  287  +10.7  +13.5       
12 16.09.18 250 (З) 11  н/о    н/о 
+12.5 +4.9 60 +10  1003  751  288           
18 16.09.18 310 (СЗ) н/о    н/о 
+12.8 +8 73 +12  1003.3  0.5  751  288  +10.5  +13.8       
00 17.09.18 330 (СЗ) н/о    н/о 
+11.3 +5.2 66 +10  1003.4  751  290           
06 17.09.18 190 (Ю) н/о    н/о 
+11.5 +6.4 71 +11  1002.3  -0.9  750  289  +10.8  +13.2       
12 17.09.18 250 (З) н/о    н/о 
+11.6 +6.7 72 +11  1001  -0.5  749  288           
00 18.09.18 300 (СЗ) 11  н/о    н/о 
+11.2 +5.7 69 +9  1000.7  0.4  749  289           
06 18.09.18 280 (З) н/о    н/о 
+10.2 +4.8 69 +8  1002.9  0.9  751  291  +10.1  +11.5       
18 18.09.18 220 (ЮЗ) н/о    н/о 
+12.7 +9.2 79 +12  1003.6  0.3  751  288  +10.2  +12.7       
00 19.09.18 100 (В) н/о    н/о 
+12.7 +9.6 81 +13  1002.3  -0.9  750  287           
03 19.09.18 110 (В) н/о    н/о 
+11.6 +10.8 95 +12  1001.6  -0.7  750  288           
12 19.09.18 110 (В) 10  н/о    н/о 
+12.4 +11.6 95 +13  998.1  -1  747  286           
18 19.09.18 190 (Ю) н/о    н/о 
+13.6 +13.1 97 +19  998.3  0.2  747  284  +11.9  +13.6       
21 19.09.18 280 (З) н/о    н/о 
+13.4 +12.8 96 +18  998.5  0.2  747  285           
00 20.09.18 070 (В) н/о    н/о 
+12.1 +11.3 95 +15  998.1  -0.4  747  286           
06 20.09.18 170 (Ю) 12  н/о    н/о 
+14.1 +12.5 90 +17  993.1  -3.5  743  282  +12  +14.1       
12 20.09.18 200 (Ю) 17  н/о    н/о 
+14.3 +11 81 +15  989.5  -1  741  281           
18 20.09.18 250 (З) 11  н/о    н/о 
+13.8 +8 68 +12  991.3  1.5  742  283  +13.7  +15.4       
00 21.09.18 240 (ЮЗ) 18  н/о    н/о 
+13.8 +6.1 60 +11  992.5  0.5  743  284           
03 21.09.18 240 (ЮЗ) 14  н/о    н/о 
+13.1 +7.2 67 +11  995.5  2.9  745  285           
06 21.09.18 220 (ЮЗ) 14  н/о    н/о 
+12.5 +6.2 65 +10  995.8  0.4  745  286  +12.4  +14.5       
12 21.09.18 210 (ЮЗ) 16  н/о    н/о 
+12.5 +8.3 76 +10  997.3  0.8  746  286           
18 21.09.18 160 (Ю) 12  н/о    н/о 
+11.9 +10.3 90 +12  994.8  -2.1  745  286  +11.8  +13.1       
21 21.09.18 140 (ЮВ) 10  н/о    н/о 
+13.4 +12.3 93 +17  990.2  -4.4  741  282           
00 22.09.18 170 (Ю) 13  н/о    н/о 
+15.4 +13.4 88 +20  987.7  -2.5  739  279           
Время (UTC), дата Ветер
(°,м/с) 
Видим.   Явления Облачность Т
(°С)
Тd
(°С)
f(%) Тe
(°С)
Pmin
(гПа)
dP
(гПа)
Po
(мм)
O2
(г/м3)
Тmin Tmax R s Состояние
почвы

Для получения пояснительной информации подведите курсор к названию столбца.

ПОГОДА Kemi I - архив

Всё, что Вы хотите узнать о погоде Kemi I - удобно и подробно!

Выберите нужную дату (начиная с 1 января 2015* года) и нажмите кнопку "Найти".
Будут отображены архивные сводки погоды по пункту Kemi I, начиная с указанной даты.


Отображать данные в формате CSV (для использования в таблицах Excel)


Внимание! Наш архив погоды предназначен исключительно для личного некоммерческого использования в познавательных целях. Если Вам необходимы официальные справки о состоянии погоды (для производственных, юридических, коммерческих и т.п. целей), обращайтесь в органы Росгидромета.

*Примечание: данная дата относится к архиву по метеостанциям СССР (Россия, СНГ, Балтия).
Архив по метеостанциям Зарубежной Европы и Азии (кроме Китая) хранится 10 дней, по другим регионам земного шара (Китай, Африка, Америка, Австралия, Океания) - 1 день.

Kemi I - район местоположения метеостанции


Название, широта, долгота, высота метеостанции:
Kemi I 65.4°ш. 24.1°д. 13 м над ур. моря [Finland]

Дополнительная информация

В oтличие oт бoльшинства пoгoдных сайтoв мы публикуем пoдрoбную метеoинфoрмацию в детальнoм прoфессиoнальнoм фoрмате.

Характеристики температуры и влажнoсти вoздуха измеряются на высoте 2 м в тени вдали oт зданий и деревьев.
Скoрoсть ветра измеряется на высoте 10 м (на урoвне рoста челoвека скoрoсть ветра ниже в 1.5-2 раза). Если метеoстанция нахoдится в гoрoде или в лесу, тo скoрoсть ветра занижена на 2-4 м/с пo сравнению с oткрытым местoм. Скoрoсть ветра над акватoриями крупных рек и oзёр, а также на вершинах хoлмoв на 2-5 м/с выше, чем в oбычных услoвиях.
Атмoсфернoе давление в разных тoчках местнoсти мoжет значительнo oтличаться oт давления на метеoстанции, в зависимoсти oт услoвий рельефа (при пoдъёме на 10 м давление пoнижается примернo на 1 мм рт.ст.).